Regional Weather Roundup
Issued by NWS

Home | Current Version | Previous Version | Text Only | Print | Product List | Glossary On
Versions: 1 2 3 4 5 6 7 8 9 10 11 12 13 14 15 16 17 18 19 20 21 22 23 24 25 26 27 28 29 30 31 32 33 34 35 36 37 38 39 40 41 42 43 44 45 46 47 48 49 50
000
ASUS43 KMPX 281710
RWRMN
WEATHER ROUNDUP FOR MINNESOTA
NATIONAL WEATHER SERVICE TWIN CITIES/CHANHASSEN MN
1100 AM CST WED JAN 28 2015


NOTE: "FAIR" INDICATES FEW OR NO CLOUDS BELOW 12,000 FEET WITH NO
SIGNIFICANT WEATHER AND/OR OBSTRUCTIONS TO VISIBILITY. N/A MEANS
CURRENT SKY AND/OR WEATHER CONDITIONS ARE NOT AVAILABLE.

MNZ060>063-068>070-281800-
   Twin Cities Metro

CITY           SKY/WX    TMP DP  RH WIND       PRES   REMARKS
TWIN CITIES    CLOUDY    28  24  85 SE14      29.96F FOG     WCI  17
ST PAUL        CLOUDY    28  25  88 SE15      29.98F FOG     WCI  16
CRYSTAL        CLOUDY    30  25  81 SE16G22   29.94S HAZE    WCI  19
BLAINE         CLOUDY    28  28 100 SE16G23   29.95F FOG     WCI  17
LAKEVILLE      CLOUDY    27  25  93 SE14G23   29.95S FOG     WCI  15
EDEN PRAIRIE   CLOUDY    29  25  85 SE14      29.94R FOG     WCI  18
SOUTH ST PAUL  CLOUDY    28  25  86 SE9G18    29.97S FOG     WCI  20
LAKE ELMO      CLOUDY    28  27  93 SE12      29.97F FOG     WCI  18
$$
MNZ001>005-007-008-013>017-022>024-027-028-281800-
   Northwest Minnesota

CITY           SKY/WX    TMP DP  RH WIND       PRES   REMARKS
BEMIDJI        CLOUDY    30  29  96 SE9       29.80F FOG     WCI  22
HALLOCK        FOG       34  32  93 S9        29.80R VSB 1   WCI  26
ROSEAU         CLOUDY    32  28  86 SE3       29.81S FOG
WARROAD        FOG       30  27  86 SE6       29.82S VSB 3/4 WCI  24
THIEF RVR FALL CLOUDY    34  30  86 S9        29.79F WCI  26
CROOKSTON      CLOUDY    34  32  93 S12       29.80S FOG     WCI  25
FOSSTON        CLOUDY    32  28  86 S10       29.80R FOG     WCI  24
DETROIT LAKES  CLOUDY    32  32 100 S15       29.79F FOG     WCI  22
MOORHEAD       CLOUDY    36  36 100 S15       29.80S FOG
PARK RAPIDS    CLOUDY    31  30  96 S15       29.81F FOG     WCI  20
MAHNOMEN       CLOUDY    32  31  94 S12       29.80R FOG     WCI  23
$$
MNZ006-009>011-018-025>026-281800-
   North Central Minnesota

CITY           SKY/WX    TMP DP  RH WIND       PRES   REMARKS
BAUDETTE       CLOUDY    30  28  92 SE6       29.82F FOG     WCI  24
FLAG ISLAND    FOG       28  27  93 SE5       29.83S VSB 3/4 WCI  23
INTL FALLS     CLOUDY    28  24  85 SE8       29.86F WCI  20
WASKISH        CLOUDY    30  28  93 SE8       29.82F FOG     WCI  23
BIG FORK       CLOUDY    28  27  93 S7        29.86F FOG     WCI  21
LONGVILLE      CLOUDY    28  28 100 SE7       29.84F FOG     WCI  21
GRAND RAPIDS   CLOUDY    27  25  93 S15       29.87F WCI  15
CRANE LAKE     CLOUDY    25  21  86 S6        29.92F WCI  18
ORR            CLOUDY    25  19  80 SE8       29.86F WCI  16
COOK           CLOUDY    25  21  86 SE10      29.89F WCI  15
WALKER         CLOUDY    29  28  96 SE7       29.83S FOG     WCI  22
$$
MNZ012-019>021-037-281800-
   Northeast Minnesota

CITY           SKY/WX    TMP DP  RH WIND       PRES   REMARKS
DULUTH         CLOUDY    24  21  88 SE10      29.92F FOG     WCI  14
ELY            CLOUDY    27  23  86 S8        29.90F WCI  18
HIBBING        CLOUDY    25  20  81 S10       29.90F WCI  15
EVELETH        CLOUDY    25  23  93 SE13      29.91F FOG     WCI  13
DULUTH HARBOR  CLOUDY    28  25  86 CALM      29.99F
TWO HARBORS    CLOUDY    28  23  80 SE7       29.94F WCI  21
SILVER BAY     CLOUDY    28  23  80 SE6       29.95F WCI  22
GRAND MARAIS     N/A     31  26  82 SE7       30.02F WCI  24
G MARAIS ARPRT   N/A     25  21  86 SE7       29.96F FOG     WCI  17
$$
MNZ029>031-032-039>041-046>048-054>057-064-281800-
   West Central Minnesota

CITY           SKY/WX    TMP DP  RH WIND       PRES   REMARKS
FERGUS FALLS   CLOUDY    34  30  86 S15       29.82F FOG     WCI  24
WHEATON        CLOUDY    30  30 100 SE16      29.81S FOG     WCI  19
MORRIS         CLOUDY    34  30  86 SE21G28   29.79F FOG     WCI  22
ALEXANDRIA     CLOUDY    32  30  92 S17       29.81F FOG     WCI  21
ELBOW LAKE     CLOUDY    32  31  96 SE17      29.79S FOG     WCI  21
WADENA         CLOUDY    30  28  93 S14       29.82S FOG     WCI  20
GLENWOOD       CLOUDY    30  30 100 SE21      29.82F FOG     WCI  17
APPLETON       CLOUDY    36  30  80 SE15      29.80F FOG
BENSON         CLOUDY    34  30  86 S16G24    29.82F FOG     WCI  23
ORTONVILLE     PTSUNNY   34  30  86 SE18G24   29.78S FOG     WCI  23
MADISON        CLOUDY    37  36  93 SE16      29.79F FOG
WILLMAR        CLOUDY    34  30  86 SE16      29.87F FOG     WCI  23
$$
MNZ033>034-036-042>043-049>051-058-059-281800-
   Central Minnesota

CITY           SKY/WX    TMP DP  RH WIND       PRES   REMARKS
ST CLOUD       CLOUDY    30  27  88 SE17      29.89F FOG     WCI  18
SAUK CENTRE    CLOUDY    31  30  96 SE16      29.85F FOG     WCI  19
PAYNESVILLE    CLOUDY    28  28  99 E14G21    29.87F FOG     WCI  17
AITKIN         CLOUDY    30  25  80 SE10G17   29.88S HAZE    WCI  21
PINE RIVER     CLOUDY    28  28 100 SE13G18   29.88F FOG     WCI  18
BRAINERD       CLOUDY    29  27  92 S12G21    29.86F FOG     WCI  19
STAPLES        CLOUDY    28  28 100 SE8       29.84F FOG     WCI  20
LONG PRAIRIE   CLOUDY    30  30 100 SE13G18   29.84F FOG     WCI  20
LITTLE FALLS   CLOUDY    30  28  93 SE12      29.89S FOG     WCI  21
LITCHFIELD     CLOUDY    30  30 100 SE9G20    29.89S FOG     WCI  22
BUFFALO        CLOUDY    29  27  90 SE9       29.94S FOG     WCI  21
MAPLE LAKE     CLOUDY    31  30  94 SE10G18   29.92S FOG     WCI  22
$$
MNZ037-044-045-052-053-281800-
   East Central Minnesota

CITY           SKY/WX    TMP DP  RH WIND       PRES   REMARKS
PRINCETON      CLOUDY    30  27  86 SE12G18   29.93F FOG     WCI  21
MORA           CLOUDY    27  23  86 SE10      29.95F WCI  17
CAMBRIDGE      CLOUDY    28  21  74 SE12G18   29.93S HAZE    WCI  18
RUSH CITY      CLOUDY    27  24  86 SE15G21   29.95F WCI  15
MOOSE LAKE     CLOUDY    28  23  80 SE6       29.92S WCI  22
HINCKLEY       CLOUDY    28  27  93 SE10G18   29.94F WCI  19
CLOQUET        CLOUDY    25  21  86 SE5       29.92F FOG     WCI  19
MCGREGOR       CLOUDY    28  27  93 SE9       29.91S WCI  20
$$
MNZ071>073-080-081-089-090-097-098-281800-
   Southwest Minnesota

CITY           SKY/WX    TMP DP  RH WIND       PRES   REMARKS
MONTEVIDEO     CLOUDY    34  32  93 S14G20    29.82F FOG     WCI  24
GRANITE FALLS  CLOUDY    32  31  94 SE12G20   29.84F FOG     WCI  23
CANBY          CLOUDY    34  32  92 SE9       29.79F FOG     WCI  27
MARSHALL       CLOUDY    34  28  80 S14G21    29.82S WCI  24
REDWOOD FALLS  CLOUDY    33  30  88 SE18      29.85S FOG     WCI  22
OLIVIA         CLOUDY    32  32 100 SE13G20   29.86S FOG     WCI  22
PIPESTONE      PTSUNNY   34  30  86 S13G20    29.75F FOG     WCI  25
WINDOM         CLOUDY    32  30  93 SE18      29.82S FOG     WCI  20
WORTHINGTON    CLOUDY    30  28  93 S17       29.81R WCI  18
JACKSON        CLOUDY    32  30  93 S15G23    29.82F FOG     WCI  22
TRACY          CLOUDY    33  32  95 S14G24    29.80F FOG     WCI  24
SLAYTON        CLOUDY    32  31  95 SE20      29.79F FOG     WCI  20
$$
MNZ065>067-074>077-082>085-091>093-281800-
   South Central Minnesota

CITY           SKY/WX    TMP DP  RH WIND       PRES   REMARKS
MANKATO        CLOUDY    30  27  86 SE22      29.90F WCI  17
NEW ULM        CLOUDY    30  30 100 SE10      29.88F FOG     WCI  21
ST JAMES       CLOUDY    34  30  86 SE17G24   29.88R FOG     WCI  23
FAIRMONT       CLOUDY    30  27  86 S22       29.84F WCI  17
GLENCOE        CLOUDY    32  30  94 SE10      29.91S FOG     WCI  23
FARIBAULT      CLOUDY    28  27  93 SE15      29.94F FOG     WCI  17
OWATONNA       CLOUDY    28  27  93 SE17G25   29.93S FOG     WCI  16
WASECA         CLOUDY    32  28  86 SE13G20   29.93S FOG     WCI  22
ALBERT LEA     FOG       28  28 100 SE22      29.90F VSB 1/2 WCI  15
$$
MNZ078>079-086>088-094>096-281800-
   Southeast Minnesota

CITY           SKY/WX    TMP DP  RH WIND       PRES   REMARKS
ROCHESTER      FOG       26  25  96 SE23      29.95F VSB 1/2 WCI  11
RED WING       CLOUDY    28  25  86 SE14      29.99F FOG     WCI  17
STANTON        CLOUDY    28  25  86 SE12      29.95F WCI  18
DODGE CENTER   FOG       27  27 100 SE16      29.93F VSB 3/4 WCI  14
WINONA         CLOUDY    30  27  86 S10       30.06F FOG     WCI  21
AUSTIN         FOG       28  27  93 SE10G23   29.93F VSB 3/4 WCI  19
PRESTON        FOG       25  24  96 SE13      29.99F VSB 1/2 WCI  14
$$
ABBREVIATIONS USED IN REMARKS
   TC - TEMPERATURES IN CELSIUS
  WCI - WIND CHILL INDEX
   HX - HEAT INDEX
  VSB - VISIBILITY
$$


USA.gov is the U.S. government's official web portal to all federal, state and local government web resources and services.